099  
NZUS01 KABQ 271710  
RWRABQ  
NEW MEXICO REGIONAL WEATHER ROUNDUP  
NATIONAL WEATHER SERVICE ALBUQUERQUE NM  
1100 AM MDT SAT MAY 27 2017  
 
-----NORTHERN NEW MEXICO AND NEARBY AREAS-----  
 
 
CITY SKY/WX TMP DP RH WIND PRES REMARKS
 
ALBUQUERQUE FAIR 73 17 12 W14 30.10S  
BELEN FAIR 75 19 12 SW14 30.10S  
SOCORRO FAIR 77 20 11 E3 30.08F  
 
CITY SKY/WX TMP DP RH WIND PRES REMARKS
 
SANTA FE SUNNY 71 22 15 SW16G24 30.10S  
LOS ALAMOS SUNNY 66 19 16 NE7 30.15S  
TAOS SUNNY 64 23 20 SW7G16 30.14S  
ANGEL FIRE FAIR 57 24 27 SW16G23 30.19S  
FARMINGTON SUNNY 70 29 21 W16 30.08S  
GRANTS SUNNY 68 17 14 NW7G17 30.17F  
GALLUP SUNNY 68 24 19 VRB7G17 30.16F  
FLAGSTAFF SUNNY 64 21 19 W8 30.22R  
DURANGO SUNNY 66 26 22 W15G23 30.11F  
 
CITY SKY/WX TMP DP RH WIND PRES REMARKS
 
ALAMOSA SUNNY 63 19 18 VRB6 30.09S  
DENVER CLOUDY 54 42 64 N10 30.11R  
CLAYTON SUNNY 67 50 54 N23 30.02R  
RATON SUNNY 68 38 33 VRB7 30.04S  
LAS VEGAS SUNNY 69 13 11 VRB7 30.09S  
CLINES CORNERS SUNNY 68 16 13 W25 30.14S  
SANTA ROSA FAIR 79 20 11 W15 30.00S  
TUCUMCARI SUNNY 82 19 9 CALM 29.94S  
CLOVIS (AFB) SUNNY 82 20 10 NW9G23 30.01R  
CLOVIS SUNNY 82 25 12 W17 29.99R  
AMARILLO SUNNY 77 49 37 NW16 29.95S  
 
-----SOUTHERN NEW MEXICO AND NEARBY AREAS-----  
 
 
CITY SKY/WX TMP DP RH WIND PRES REMARKS
 
T OR C SUNNY 78 22 12 VRB5 30.08F  
DEMING SUNNY 79 21 11 W13 30.10F  
TUCSON SUNNY 83 23 11 CALM 30.03F  
EL PASO MOSUNNY 84 33 16 W13G25 30.05F  
LAS CRUCES SUNNY 81 23 12 W18G25 30.11S  
 
CITY SKY/WX TMP DP RH WIND PRES REMARKS
 
ALAMOGORDO SUNNY 82 23 11 SW16G26 30.09F  
RUIDOSO SUNNY 72 18 13 NW8 30.18S  
ROSWELL SUNNY 87 24 10 VRB3 29.97F  
CARLSBAD SUNNY 89 25 10 W30G38 29.97F  
HOBBS SUNNY 88 25 10 W16G24 29.99F  
 
CLICK HERE TO GO TO PREVIOUS BULLETINS.

The Nexlab NM Page Main Text Page